Regional Weather Roundup
Issued by NWS

Home | Current Version | Previous Version | Graphics & Text | Print | Product List | Glossary On
Versions: 1 2 3 4 5 6 7 8 9 10 11 12 13 14 15 16 17 18 19 20 21 22 23 24 25 26 27 28 29 30 31 32 33 34 35 36 37 38 39 40 41 42 43 44 45 46 47 48 49 50
000
ASUS43 KMKX 061721
RWRWI

WISCONSIN REGIONAL WEATHER ROUNDUP
NATIONAL WEATHER SERVICE MILWAUKEE/SULLIVAN WI
1200 PM CDT WED MAY 06 2015

NOTE: "FAIR" INDICATES FEW OR NO CLOUDS BELOW 12,000 FEET WITH NO
SIGNIFICANT WEATHER AND/OR OBSTRUCTIONS TO VISIBILITY.

WIZ001-002-006>008-014>016-023>028-061800-
NORTHWEST WISCONSIN

CITY           SKY/WX    TMP DP  RH WIND       PRES   REMARKS
SUPERIOR ARPT  CLOUDY    45  38  76 E13       30.10S
ASHLAND        LGT RAIN  53  53 100 NE5       30.12F FOG
HAYWARD        PTSUNNY   62  53  72 E12       30.09F
SIREN          CLOUDY    61  53  75 E7        30.06F
CUMBERLAND     CLOUDY    55  52  88 SE12      30.09F
RICE LAKE      CLOUDY    59  53  80 SE12      30.12S
CHETEK         CLOUDY    59  55  85 SE10      30.11S
LADYSMITH      CLOUDY    60  55  82 SE7       30.14F
EAU CLAIRE     LGT RAIN  59  55  87 E8        30.08F
MENOMONIE      CLOUDY    61  55  81 E10       30.08F HAZE
NEW RICHMOND   CLOUDY    58  56  92 SE12      30.07R FOG
OSCEOLA        CLOUDY    61  59  94 E12       30.07F
$$

WIZ003>005-009-010-017-018-061800-
NORTH CENTRAL WISCONSIN

CITY           SKY/WX    TMP DP  RH WIND       PRES   REMARKS
MANITOWISH WTR CLOUDY    50  50 100 SE7       30.16F
ARBOR VITAE    LGT RAIN  52  50  93 CALM      30.16F
WOODRUFF       LGT RAIN  52  50  93 CALM      30.16F
RHINELANDER    CLOUDY    54  51  90 E10       30.18F
EAGLE RIVER    CLOUDY    58  45  60 SE5       30.18S
LAND O LAKES     N/A     58  45  62 SE6       30.19F
PHILLIPS       CLOUDY    53  51  92 SE7       30.14S
TOMAHAWK       CLOUDY    53  51  93 CALM      30.17F
MEDFORD        PTSUNNY   61  55  81 SE9       30.14S
MERRILL        CLOUDY    56  54  93 SE5       30.17F
$$

WIZ029-030-035-036-043>047-061800-
CENTRAL WISCONSIN

CITY           SKY/WX    TMP DP  RH WIND       PRES   REMARKS
WAUSAU         CLOUDY    60  53  77 E8        30.15F
MOSINEE        CLOUDY    63  57  82 SE9       30.16F
MARSHFIELD     PTSUNNY   66  53  63 SE9       30.14F
STEVENS POINT  PTSUNNY   61  52  72 SE7       30.17S
WAUPACA        PTSUNNY   66  53  63 SE10      30.17F
WAUTOMA        PTSUNNY   66  57  72 S8        30.17F
WISC RAPIDS    MOSUNNY   69  54  58 SE8       30.14F
CAMP DOUGLAS   PTSUNNY   64  64 100 SE12      30.11F
$$

WIZ011>013-019>022-031-037>040-048>050-061800-
NORTHEAST WISCONSIN

CITY           SKY/WX    TMP DP  RH WIND       PRES   REMARKS
ANTIGO         CLOUDY    56  54  94 SE12      30.19F
SHAWANO        CLOUDY    58  54  84 E8        30.19F
OCONTO         PTSUNNY   56  48  75 E8        30.20F
STURGEON BAY   PTSUNNY   55  45  67 E5        30.24F
GREEN BAY      PTSUNNY   62  54  74 SE7       30.19F
MANITOWOC      HVY RAIN  50  50 100 MISG        N/A
APPLETON       PTSUNNY   61  52  72 VRB6      30.19S
CLINTONVILLE   PTSUNNY   57  52  82 E6        30.18F
OSHKOSH        PTSUNNY   60  53  77 E10       30.18S
$$

WIZ032>034-041-042-053>061-061800-
SOUTHWEST WISCONSIN

CITY           SKY/WX    TMP DP  RH WIND       PRES   REMARKS
LA CROSSE      PTSUNNY   67  58  72 VRB6      30.08F
SPARTA         PTSUNNY   67  56  69 SE5       30.11F
VIROQUA        CLOUDY    63  63  97 SE8       30.10F
BOSCOBEL       MOSUNNY   71  59  65 E6        30.10F
PRAIRIE DU CHI PTSUNNY   66  58  74 E7        30.09F
PLATTEVILLE    MOSUNNY   66  62  87 SE9       30.12F
$$

WIZ056-057-062-063-064-067-068-061800-
SOUTH CENTRAL WISCONSIN

CITY           SKY/WX    TMP DP  RH WIND       PRES   REMARKS
REEDSBURG      PTSUNNY   61  57  87 SE5       30.13S
BARABOO/DELLS  NOT AVBL
LONE ROCK      CLOUDY    63  57  81 E9        30.13F
MINERAL POINT  MOSUNNY   68  61  77 SE9       30.12F
MADISON        PTSUNNY   60  57  89 S6        30.15R FOG
MIDDLETON      CLOUDY    61  58  92 SE3       30.15S
WATERTOWN      LGT RAIN  59  59 100 E7        30.14F
MONROE         PTSUNNY   63  59  88 E5        30.14F FOG
JANESVILLE     PTSUNNY   68  61  77 SE8       30.15S HAZE
$$

WIZ051-052-058>065-066-070>072-061800-
SOUTHEAST WISCONSIN

CITY           SKY/WX    TMP DP  RH WIND       PRES   REMARKS
MILWAUKEE      PTSUNNY   52  48  86 E8        30.19F
WAUKESHA       CLOUDY    54  52  94 N3        30.20S FOG
MILWAUKEE/TIMM RAIN      52  46  82 SE6       30.21S
RACINE         CLOUDY    52  48  86 NE7       30.21S FOG
BURLINGTON     MOSUNNY   63  56  79 E6        30.17F
KENOSHA        CLOUDY    58  53  84 E9        30.19S
FOND DU LAC    LGT RAIN  61  55  81 S10       30.18F
SHEBOYGAN      CLOUDY    54  51  90 SE8       30.21S
WEST BEND      CLOUDY    54  50  87 CALM      30.20S
JUNEAU         PTSUNNY   59  56  90 E9        30.18F FOG
$$

LSZ147-162-061800-
LAKE SUPERIOR

STATION/POSITION TIME  TEMP    WIND        PRES    WAVE
                       AIR SEA DIR/SP/G            HT/PER
                 (UTC) (F)     (DEG/KT/KT) (MB)    (FT/S)
W MID LAKE BUOY  1650   40 36   70/  8/  8 1021.6F   0
DEVILS ISLAND    1700   47     100/  8/  9 1020.7F
PORT WING        1600   40      30/  9/ 11 1020.0F
SAXON HARBOR     1600   59      CALM  /  6 1020.3
$$

LMZ867-665-643>646-061800-
LAKE MICHIGAN

STATION/POSITION TIME  TEMP    WIND        PRES    WAVE
                       AIR SEA DIR/SP/G            HT/PER
                 (UTC) (F)     (DEG/KT/KT) (MB)    (FT/S)
CHAMBERS ISLAND  1600   52     350/  1/  3 1023.7S
NORTHPORT PIER   1600   44     140/  4/  5 1024.0S
SISTER BAY       1602   61     120/  9/ 13   N/A
KEWAUNEE LAKESHO 1600   46      50/  3/  5 1022.6F
SHEBOYGAN LAKESH 1700   45     160/  6/  7 1023.7F
PORT WASHINGTON  1640   46      50/  7/  9 1023.0F
ATWATER BUOY     1700   43      CALM  /  2 1023.9
MILWAUKEE LAKESH 1700   44      40/  4/  5   N/A
KENOSHA   LAKESH 1700   44      30/  7/  9 1022.7S
$$

TC  - TEMPERATURE IN CELSIUS
VSB - VISIBILITY IN STATUTE MILES
WCI - WIND CHILL INDEX
HX  - HEAT INDEX



USA.gov is the U.S. government's official web portal to all federal, state and local government web resources and services.